This demonstration page uses our WeatherBlox Daily Observations layout. Learn more.

Hourly Observations for October 6, 2016

Temp ( °F °C ) Dew Point ( °F °C ) Humidity (%) Winds ( mph kmh ) Pressure ( in mb ) Visibility ( mi km ) Precip ( " mm )
12:15 am 00:15 Clear 48 8.8 40 4.3 74 74 ESE 7 11 29.94 1014 10 16.09344 0 0
12:35 am 00:35 Clear 49 9.6 41 5.2 74 74 SE 7 11 29.94 1014 10 16.09344 0 0
12:55 am 00:55 Clear 49 9.2 42 5.3 77 77 ESE 7 11 29.94 1014 10 16.09344 0 0
1:15 am 01:15 Clear 49 9.4 42 5.4 76 76 ESE 8 13 29.91 1013 10 16.09344 0 0
1:35 am 01:35 Clear 51 10.4 43 6.1 75 75 E 7 11 29.91 1013 10 16.09344 0 0
1:55 am 01:55 Partly Cloudy 51 10.5 43 6.1 74 74 ESE 8 13 29.91 1013 10 16.09344 0 0
2:15 am 02:15 Partly Cloudy 50 10 43 6 76 76 ESE 5 7 29.91 1013 10 16.09344 0 0
2:35 am 02:35 Clear 49 9.6 43 6 78 78 Calm 29.91 1013 10 16.09344 0 0
2:55 am 02:55 Clear 49 9.2 44 6.5 83 83 Calm 29.91 1013 10 16.09344 0 0
3:15 am 03:15 Clear 50 9.8 45 7.4 85 85 E 6 9 29.91 1013 10 16.09344 0 0
3:35 am 03:35 Partly Cloudy 52 10.9 46 8 82 82 E 9 15 29.88 1012 10 16.09344 0 0
3:55 am 03:55 Partly Cloudy 49 9.5 45 7.1 85 85 NE 3 6 29.88 1012 10 16.09344 0 0
4:15 am 04:15 Clear 48 8.8 45 7 89 89 Calm 29.88 1012 10 16.09344 0 0
4:35 am 04:35 Clear 48 9.1 45 7.3 89 89 NNE 6 9 29.88 1012 10 16.09344 0 0
4:55 am 04:55 Mostly Cloudy 49 9.5 46 7.6 88 88 NE 6 9 29.91 1013 7 11.265408 0 0
5:15 am 05:15 Cloudy 50 10.1 47 8.1 88 88 N 7 11 29.91 1013 10 16.09344 0 0
5:35 am 05:35 Cloudy 52 11 48 8.7 86 86 N 9 15 29.91 1013 10 16.09344 0 0
5:55 am 05:55 Mostly Cloudy 52 11.1 47 8.5 84 84 NNE 8 13 29.91 1013 10 16.09344 0 0
6:15 am 06:15 Partly Cloudy 51 10.7 47 8.5 86 86 NE 8 13 29.91 1013 10 16.09344 0 0
6:35 am 06:35 Mostly Cloudy 52 11.2 48 8.9 86 86 NE 10 17 29.91 1013 10 16.09344 0 0
6:55 am 06:55 Cloudy 53 11.8 48 9.1 84 84 NE 10 17 29.94 1014 10 16.09344 0 0
7:15 am 07:15 Cloudy 53 11.7 48 9 84 84 NE 10 17 29.94 1014 10 16.09344 0 0
7:35 am 07:35 Cloudy 53 11.6 48 9 84 84 NE 12 19 29.94 1014 10 16.09344 0 0
7:55 am 07:55 Cloudy 53 11.5 47 8.2 80 80 NE 14 22 29.94 1014 10 16.09344 0 0
8:15 am 08:15 Cloudy 52 11.3 46 7.5 78 78 NE 15 24 29.94 1014 10 16.09344 0 0
8:35 am 08:35 Cloudy 51 10.7 44 6.6 76 76 NE 17 28 29.94 1014 10 16.09344 0 0
8:55 am 08:55 Cloudy 52 11.1 43 6 71 71 NNE 17 28 29.94 1014 10 16.09344 0 0
9:15 am 09:15 Cloudy 52 11 42 5.4 69 69 NNE 17 28 29.94 1014 10 16.09344 0 0
9:35 am 09:35 Cloudy 51 10.7 41 4.8 67 67 NE 20 31 29.94 1014 10 16.09344 0 0
9:55 am 09:55 Cloudy 52 11.1 40 4.5 64 64 NE 20 31 29.91 1013 10 16.09344 0 0
10:15 am 10:15 Cloudy 52 11.3 40 4.5 63 63 NE 22 35 29.88 1012 10 16.09344 0 0
10:35 am 10:35 Cloudy 53 11.5 40 4.4 62 62 NE 21 33 29.85 1011 10 16.09344 0 0
10:55 am 10:55 Cloudy 52 11.3 39 4.1 62 62 NNE 22 35 29.88 1012 10 16.09344 0 0
11:15 am 11:15 Cloudy 52 11.1 39 3.8 61 61 N 9 15 29.91 1013 10 16.09344 0 0
11:35 am 11:35 Cloudy 52 11.2 38 3.5 59 59 NNE 18 30 29.91 1013 10 16.09344 0 0
11:55 am 11:55 Cloudy with Light Rain 52 11.1 38 3.1 58 58 NNE 17 28 29.91 1013 10 16.09344 0 0
12:15 pm 12:15 Cloudy 52 11.2 38 3.1 58 58 NE 21 33 29.91 1013 10 16.09344 0 0
12:35 pm 12:35 Cloudy 51 10.6 39 3.7 63 63 NNE 15 24 29.94 1014 10 16.09344 0 0
12:55 pm 12:55 Cloudy 51 10.5 38 3.5 62 62 NNE 20 31 29.94 1014 10 16.09344 0 0
1:15 pm 13:15 Cloudy with Nearby Thunderstorms 51 10.6 38 3.3 61 61 NNE 16 26 29.94 1014 10 16.09344 0 0
1:35 pm 13:35 Cloudy 51 10.6 38 3.5 62 62 NNE 21 33 29.94 1014 10 16.09344 0 0
1:55 pm 13:55 Cloudy 50 10.1 37 3 62 62 NNE 20 31 29.94 1014 10 16.09344 0 0
2:15 pm 14:15 Cloudy 49 9.7 37 2.7 62 62 N 20 31 29.97 1015 10 16.09344 0 0
2:35 pm 14:35 Cloudy 49 9.3 35 1.9 60 60 N 17 28 29.97 1015 10 16.09344 0 0
2:55 pm 14:55 Cloudy 47 8.6 35 1.6 62 62 N 21 33 30.03 1017 10 16.09344 0 0
3:15 pm 15:15 Cloudy 47 8.6 34 1.2 60 60 N 20 31 30.03 1017 10 16.09344 0 0
3:35 pm 15:35 Cloudy 47 8.6 34 1.1 60 60 N 20 31 30.03 1017 10 16.09344 0 0
3:55 pm 15:55 Cloudy 46 7.5 36 2 68 68 N 17 28 30.06 1018 10 16.09344 0 0
4:15 pm 16:15 Cloudy 45 7.2 34 1.1 66 66 N 21 33 30.09 1019 10 16.09344 0 0
4:35 pm 16:35 Cloudy 46 7.5 34 1.3 65 65 NNW 16 26 30.09 1019 10 16.09344 0 0
4:55 pm 16:55 Cloudy 44 6.5 36 2 73 73 NNW 17 28 30.09 1019 10 16.09344 0 0
5:15 pm 17:15 Cloudy 43 6 35 1.5 73 73 NNW 18 30 30.15 1021 10 16.09344 0 0
5:35 pm 17:35 Cloudy 43 6.1 34 1 70 70 NNW 20 31 30.15 1021 10 16.09344 0 0
5:55 pm 17:55 Cloudy 44 6.5 34 1 68 68 NNW 20 31 30.15 1021 10 16.09344 0 0
6:15 pm 18:15 Cloudy 43 6.1 34 1.2 71 71 NNW 17 28 30.15 1021 10 16.09344 0 0
6:35 pm 18:35 Cloudy 43 6.1 35 1.4 72 72 NNW 14 22 30.18 1022 10 16.09344 0 0
6:55 pm 18:55 Cloudy 43 6.1 35 1.5 73 73 NNW 18 30 30.18 1022 10 16.09344 0 0
7:15 pm 19:15 Cloudy 42 5.7 35 1.6 75 75 NNW 17 28 30.18 1022 10 16.09344 0 0
7:35 pm 19:35 Cloudy 41 5.2 34 1.2 76 76 NNW 15 24 30.18 1022 10 16.09344 0 0
7:55 pm 19:55 Cloudy 41 5.1 34 1.1 76 76 NNW 20 31 30.18 1022 10 16.09344 0 0
8:15 pm 20:15 Mostly Cloudy 40 4.5 33 0.7 77 77 NNW 17 28 30.18 1022 10 16.09344 0 0
8:35 pm 20:35 Partly Cloudy 39 3.7 33 0.5 80 80 NNW 13 20 30.21 1023 10 16.09344 0 0
8:55 pm 20:55 Clear 38 3.5 33 0.5 81 81 NNW 14 22 30.24 1024 10 16.09344 0 0
9:15 pm 21:15 Partly Cloudy 38 3.3 33 0.5 82 82 NNW 9 15 30.27 1025 10 16.09344 0 0
9:35 pm 21:35 Mostly Cloudy 38 3.5 33 0.6 82 82 NNW 13 20 30.27 1025 10 16.09344 0 0
9:55 pm 21:55 Partly Cloudy 37 3 33 0.5 84 84 N 10 17 30.27 1025 10 16.09344 0 0
10:15 pm 22:15 Clear 37 2.7 33 0.6 86 86 N 9 15 30.27 1025 10 16.09344 0 0
10:35 pm 22:35 Clear 37 2.5 33 0.5 87 87 NNW 8 13 30.27 1025 10 16.09344 0 0
10:55 pm 22:55 Clear 36 2.2 33 0.5 89 89 NNW 9 15 30.27 1025 10 16.09344 0 0
11:15 pm 23:15 Clear 36 2.2 33 0.5 89 89 NNW 8 13 30.27 1025 10 16.09344 0 0
11:35 pm 23:35 Clear 36 2.2 33 0.5 89 89 N 9 15 30.27 1025 10 16.09344 0 0
11:55 pm 23:55 Clear 36 2.2 33 0.5 89 89 NNW 10 17 30.27 1025 10 16.09344 0 0

Powered by AerisWeather